Hourly Data Report for May 01, 2016

All times are specified in Local Standard Time (LST). Add 1 hour to adjust for Daylight Saving Time where and when it is observed.

Metadata including Station Name, Province, Latitude, Longitude, Elevation, Climate ID, WMO ID, TC ID
CHATHAM KENT
ONTARIO
Latitude: 42°18'21.000" N Longitude: 82°04'57.000" W Elevation: 196.60 m
Climate ID: 6131414 WMO ID: TC ID: YCK
Hourly Data Report for May 1, 2016
Temp Definition
°C

Dew Point Temp Definition
°C

Rel Hum Definition
%

Wind Dir Definition
10's deg
Wind Spd Definition
km/h

Visibility Definition
km

Stn Press Definition
kPa

Hmdx Definition

Wind Chill Definition

Weather Definition

00:00 Legend Double Dagger 8.1 7.5 96 9 30 9.7 99.01 Rain,Fog
01:00 Legend Double Dagger 8.6 8.2 97 9 26 4.8 98.98 Rain,Fog
02:00 Legend Double Dagger 9.0 8.6 97 8 26 8.1 98.93 Rain,Fog
03:00 Legend Double Dagger 9.0 8.6 97 8 26 16.1 98.85 LegendNANA
04:00 Legend Double Dagger 9.0 8.6 97 8 26 8.1 98.86 Fog
05:00 Legend Double Dagger 8.8 8.4 97 8 28 9.7 98.82 Fog
06:00 Legend Double Dagger 8.9 8.5 97 8 22 6.4 98.88 Fog
07:00 Legend Double Dagger 9.1 8.7 97 8 22 4.8 98.96 Fog
08:00 Legend Double Dagger 9.4 9.0 97 9 22 11.3 98.96 LegendNANA
09:00 Legend Double Dagger 9.8 9.4 97 8 13 8.1 99.06 Fog
10:00 Legend Double Dagger 10.2 9.8 97 7 17 6.4 99.03 Fog
11:00 Legend Double Dagger 10.6 9.8 95 4 11 16.1 99.08 LegendNANA
12:00 Legend Double Dagger 10.7 9.9 95 1 11 11.3 99.09 LegendNANA
13:00 Legend Double Dagger 11.3 10.1 92 1 8 16.1 99.10 LegendNANA
14:00 Legend Double Dagger 12.1 10.7 91 36 8 16.1 99.13 LegendNANA
15:00 Legend Double Dagger 12.3 10.3 88 34 13 16.1 99.11 LegendNANA
16:00 Legend Double Dagger 12.3 10.2 87 36 11 16.1 99.13 LegendNANA
17:00 Legend Double Dagger 10.3 9.1 92 LegendMM 8 12.9 99.15 LegendNANA
18:00 Legend Double Dagger 10.6 9.7 94 LegendMM 4 12.9 99.17 LegendNANA
19:00 Legend Double Dagger 10.5 9.4 93 1 15 16.1 99.19 LegendNANA
20:00 Legend Double Dagger 9.9 9.3 96 11 5 6.4 99.23 Fog
21:00 Legend Double Dagger 9.8 9.5 98 6 8 2.0 99.24 Rain,Fog
22:00 Legend Double Dagger 9.6 9.0 96 9 21 4.8 99.17 Fog
23:00 Legend Double Dagger 8.5 8.1 97 10 24 3.2 99.14 Fog

Notes on Data Quality.

Legend
  • E = Estimated
  • M = Missing
  • NA = Not Available
  • ‡ = Partner data that is not subject to review by the National Climate Archives